Des Moines International Airport
KDSM : now visible

Airfield :











YOU CAN JOIN US ON...

 
LOGIN :

Register | Disclaimer

   EN    FR    IT 

 









Legend :    VFR   Marginal VFR   IFR   Intensive IFR   Very Intensive IFR
Visi :
Ceiling :
>= 8 km
>= 3000ft
5 to 8 km
1000 to 3000 ft
1500m to 5 km
500 to 1000 ft
800 to 1500m
200 to 500 ft
< 800m
< 200 ft
Symbols :   Thunderstorms  Fog  Heavy snow  Heavy precipitations  Wind > 20 kt






- Airport Elevation : 958 ft
- IATA code : DSM


KDSM - Des Moines International

CURRENT METAR :
  • 191654Z 35003KT 10SM OVC021 M07/M14 A3066 RMK AO2 SLP398 T10721144

EXPIRED METARs :
  • 191554Z 06007KT 10SM OVC021 M08/M14 A3065 RMK AO2 SLP394 T10831144
  • 191454Z 04008KT 10SM OVC021 M08/M14 A3065 RMK AO2 SLP393 T10831139 53016

TAF KDSM
Valid from the 19 at 18:00 until the 20 at 18:00 UTC


191736Z 1918/2018 02006KT P6SM OVC022
FM191930 02007KT 3SM -SN OVC020
FM192200 01008KT P6SM -SN OVC040
FM200400 36007KT P6SM BKN060



MET'MAP, your aeronautical weather chart ! - Copyright ORBIFLY December 2007 - Disclaimer

ORBIFLY MET'MAP TEAM :

Programming & Development : Alexandra Zaïnal
Concept & original design : Baudouin d'Aumeries
Assistance for programming : Marc-Olivier Méhu
Technical & hardware support : Manuel Goepfert

Contact : metmap@orbifly.com




SOURCES & CREDITS :

   NOAA       Earth
Advisory